Time,TemperatureF,DewpointF,PressureIn,WindDirection,WindDirectionDegrees,WindSpeedMPH,WindSpeedGustMPH,Humidity,HourlyPrecipIn,Conditions,Clouds,dailyrainin,SoftwareType,DateUTC
2013-10-05 00:02:00,56.7,56.4,29.07,NE,45,6.0,6.0,99,0.01,RA,,0.00,WeatherDisplay:10.37,2013-10-05 05:02:00,
2013-10-05 00:07:00,56.7,56.4,29.07,NE,45,5.8,5.8,99,0.01,RA,,0.00,WeatherDisplay:10.37,2013-10-05 05:07:00,
2013-10-05 00:12:00,56.8,56.6,29.08,NE,45,5.8,5.8,99,0.01,CLR,,0.00,WeatherDisplay:10.37,2013-10-05 05:12:00,
2013-10-05 00:17:00,56.7,56.4,29.09,North,0,4.6,4.6,99,0.01,CLR,,0.00,WeatherDisplay:10.37,2013-10-05 05:17:00,
2013-10-05 08:54:00,59.0,58.7,29.00,East,90,19.6,19.6,99,0.00,CLR,,0.14,WeatherDisplay:10.37,2013-10-05 13:54:00,
2013-10-05 08:59:00,59.0,58.7,28.98,East,90,5.8,5.8,99,0.00,CLR,,0.14,WeatherDisplay:10.37,2013-10-05 13:59:00,
2013-10-05 09:04:00,59.2,58.9,28.99,East,90,4.6,4.6,99,0.00,CLR,,0.14,WeatherDisplay:10.37,2013-10-05 14:04:00,
2013-10-05 09:09:00,59.4,59.1,28.98,East,90,5.8,5.8,99,0.00,CLR,,0.14,WeatherDisplay:10.37,2013-10-05 14:09:00,
2013-10-05 09:14:00,59.4,59.1,28.99,NW,315,2.3,0.0,99,0.01,RA,,0.15,WeatherDisplay:10.37,2013-10-05 14:14:00,
2013-10-05 09:19:00,59.4,59.1,28.98,East,90,4.6,4.6,99,0.01,RA,,0.15,WeatherDisplay:10.37,2013-10-05 14:19:00,
2013-10-05 09:24:00,59.5,59.3,28.98,East,90,6.9,6.9,99,0.01,CLR,,0.15,WeatherDisplay:10.37,2013-10-05 14:24:00,
2013-10-05 09:29:00,59.5,59.3,28.98,East,90,6.9,6.9,99,0.01,CLR,,0.15,WeatherDisplay:10.37,2013-10-05 14:29:00,
2013-10-05 09:34:00,59.7,59.4,28.98,East,90,3.5,3.5,99,0.01,CLR,,0.15,WeatherDisplay:10.37,2013-10-05 14:34:00,
2013-10-05 09:39:00,59.7,59.4,28.99,SE,135,4.6,4.6,99,0.01,CLR,,0.15,WeatherDisplay:10.37,2013-10-05 14:39:00,
2013-10-05 09:44:00,59.7,59.4,28.99,East,90,3.5,3.5,99,0.01,CLR,,0.15,WeatherDisplay:10.37,2013-10-05 14:44:00,
2013-10-05 09:49:00,59.9,59.6,28.99,SE,135,2.3,0.0,99,0.01,CLR,,0.15,WeatherDisplay:10.37,2013-10-05 14:49:00,
2013-10-05 09:54:00,59.9,59.6,28.99,East,90,3.5,3.5,99,0.01,CLR,,0.15,WeatherDisplay:10.37,2013-10-05 14:54:00,
2013-10-05 09:59:00,60.1,59.8,28.98,East,90,5.8,5.8,99,0.01,CLR,,0.15,WeatherDisplay:10.37,2013-10-05 14:59:00,
2013-10-05 10:04:00,60.1,59.8,28.99,East,90,3.5,3.5,99,0.01,CLR,,0.15,WeatherDisplay:10.37,2013-10-05 15:04:00,
2013-10-05 10:09:00,60.1,59.8,28.98,East,90,3.5,0.0,99,0.01,CLR,,0.15,WeatherDisplay:10.37,2013-10-05 15:09:00,
2013-10-05 10:14:00,60.3,60.0,28.99,East,90,2.3,2.3,99,0.00,CLR,,0.15,WeatherDisplay:10.37,2013-10-05 15:14:00,
2013-10-05 10:19:00,60.3,60.0,28.99,East,90,2.3,2.3,99,0.00,CLR,,0.15,WeatherDisplay:10.37,2013-10-05 15:19:00,
2013-10-05 10:24:00,60.4,60.2,28.98,East,90,3.5,3.5,99,0.00,CLR,,0.15,WeatherDisplay:10.37,2013-10-05 15:24:00,
2013-10-05 10:29:00,60.4,60.2,28.98,NE,45,3.5,3.5,99,0.00,CLR,,0.15,WeatherDisplay:10.37,2013-10-05 15:29:00,
2013-10-05 10:34:00,60.6,60.1,28.98,NE,45,3.5,3.5,98,0.00,CLR,,0.15,WeatherDisplay:10.37,2013-10-05 15:34:00,
2013-10-05 10:39:00,60.6,60.1,28.98,East,90,3.5,3.5,98,0.00,CLR,,0.15,WeatherDisplay:10.37,2013-10-05 15:39:00,
2013-10-05 10:44:00,60.6,60.1,28.98,East,90,3.5,3.5,98,0.00,CLR,,0.15,WeatherDisplay:10.37,2013-10-05 15:44:00,
2013-10-05 10:49:00,60.8,60.2,28.98,East,90,3.5,3.5,98,0.00,CLR,,0.15,WeatherDisplay:10.37,2013-10-05 15:49:00,
2013-10-05 10:54:00,61.0,60.4,28.98,East,90,4.6,4.6,98,0.00,CLR,,0.15,WeatherDisplay:10.37,2013-10-05 15:54:00,
2013-10-05 10:59:00,61.0,60.4,28.98,NE,45,3.5,3.5,98,0.00,CLR,,0.15,WeatherDisplay:10.37,2013-10-05 15:59:00,
2013-10-05 11:04:00,61.2,60.6,28.98,East,90,3.5,3.5,98,0.00,CLR,,0.15,WeatherDisplay:10.37,2013-10-05 16:04:00,
2013-10-05 11:09:00,61.3,60.8,28.98,East,90,2.3,2.3,98,0.00,CLR,,0.15,WeatherDisplay:10.37,2013-10-05 16:09:00,
2013-10-05 11:14:00,61.3,60.8,28.98,SE,135,2.3,2.3,98,0.00,CLR,,0.15,WeatherDisplay:10.37,2013-10-05 16:14:00,
2013-10-05 11:19:00,61.3,60.8,28.98,SE,135,3.5,3.5,98,0.00,CLR,,0.15,WeatherDisplay:10.37,2013-10-05 16:19:00,
2013-10-05 11:24:00,61.5,61.0,28.98,NE,45,3.5,0.0,98,0.00,CLR,,0.15,WeatherDisplay:10.37,2013-10-05 16:24:00,
2013-10-05 11:29:00,61.5,61.0,28.99,East,90,2.3,2.3,98,0.00,CLR,,0.15,WeatherDisplay:10.37,2013-10-05 16:29:00,
2013-10-05 11:34:00,61.7,61.1,29.00,SW,225,0.0,0.0,98,0.00,CLR,,0.15,WeatherDisplay:10.37,2013-10-05 16:34:00,
2013-10-05 11:39:00,61.5,61.0,28.99,East,90,0.0,0.0,98,0.00,CLR,,0.15,WeatherDisplay:10.37,2013-10-05 16:39:00,
2013-10-05 11:44:00,61.5,61.0,28.98,East,90,3.5,3.5,98,0.00,CLR,,0.15,WeatherDisplay:10.37,2013-10-05 16:44:00,
2013-10-05 11:49:00,61.7,61.4,28.99,NE,45,3.5,3.5,99,0.00,CLR,,0.15,WeatherDisplay:10.37,2013-10-05 16:49:00,
2013-10-05 11:54:00,61.7,61.1,28.98,NE,45,1.2,1.6,98,0.00,CLR,,0.15,WeatherDisplay:10.37,2013-10-05 16:54:00,
2013-10-05 11:59:00,61.7,61.4,28.98,SE,135,2.3,0.0,99,0.00,CLR,,0.15,WeatherDisplay:10.37,2013-10-05 16:59:00,
2013-10-05 12:04:00,61.9,61.6,28.98,East,90,3.5,3.5,99,0.00,CLR,,0.15,WeatherDisplay:10.37,2013-10-05 17:04:00,
2013-10-05 12:09:00,62.4,61.8,28.98,NE,45,3.5,0.0,98,0.00,CLR,,0.15,WeatherDisplay:10.37,2013-10-05 17:09:00,
2013-10-05 12:14:00,62.2,61.7,28.98,NE,45,2.3,2.3,98,0.00,CLR,,0.15,WeatherDisplay:10.37,2013-10-05 17:14:00,
2013-10-05 12:19:00,62.2,61.7,28.97,NE,45,3.5,3.5,98,0.00,CLR,,0.15,WeatherDisplay:10.37,2013-10-05 17:19:00,
2013-10-05 12:24:00,62.4,61.8,28.97,East,90,3.5,3.5,98,0.00,CLR,,0.15,WeatherDisplay:10.37,2013-10-05 17:24:00,
2013-10-05 12:29:00,62.6,62.0,28.97,NE,45,2.2,2.2,98,0.00,CLR,,0.15,WeatherDisplay:10.37,2013-10-05 17:29:00,
2013-10-05 12:34:00,62.6,62.0,28.96,East,90,3.5,3.5,98,0.00,CLR,,0.15,WeatherDisplay:10.37,2013-10-05 17:34:00,
2013-10-05 12:39:00,62.6,62.0,28.96,East,90,2.3,2.3,98,0.00,CLR,,0.15,WeatherDisplay:10.37,2013-10-05 17:39:00,
2013-10-05 12:44:00,62.4,61.8,28.94,NE,45,8.1,8.1,98,0.00,CLR,,0.17,WeatherDisplay:10.37,2013-10-05 17:44:00,
2013-10-05 12:49:00,62.8,62.2,28.94,NE,45,4.6,4.6,98,0.01,RA,,0.17,WeatherDisplay:10.37,2013-10-05 17:49:00,
2013-10-05 12:54:00,63.0,62.4,28.94,NW,315,3.5,0.0,98,0.01,RA,,0.17,WeatherDisplay:10.37,2013-10-05 17:54:00,
2013-10-05 12:59:00,63.0,62.4,28.95,East,90,1.2,0.0,98,0.01,CLR,,0.17,WeatherDisplay:10.37,2013-10-05 17:59:00,
2013-10-05 13:05:00,62.6,62.0,28.95,North,0,6.9,6.9,98,0.01,CLR,,0.17,WeatherDisplay:10.37,2013-10-05 18:05:00,
2013-10-05 13:10:00,62.8,62.2,28.95,North,0,3.5,3.5,98,0.01,CLR,,0.17,WeatherDisplay:10.37,2013-10-05 18:10:00,
2013-10-05 13:15:00,62.8,62.2,28.95,North,0,4.6,0.0,98,0.01,CLR,,0.17,WeatherDisplay:10.37,2013-10-05 18:15:00,
2013-10-05 13:20:00,63.0,62.4,28.95,North,0,3.5,3.5,98,0.01,CLR,,0.17,WeatherDisplay:10.37,2013-10-05 18:20:00,
2013-10-05 13:25:00,63.0,62.4,28.95,North,0,5.4,5.4,98,0.01,CLR,,0.17,WeatherDisplay:10.37,2013-10-05 18:25:00,
2013-10-05 13:30:00,62.8,61.9,28.95,North,0,5.8,5.8,97,0.01,CLR,,0.17,WeatherDisplay:10.37,2013-10-05 18:30:00,
2013-10-05 13:35:00,63.0,62.1,28.94,NE,45,3.5,3.5,97,0.01,CLR,,0.17,WeatherDisplay:10.37,2013-10-05 18:35:00,
2013-10-05 13:40:00,62.8,61.9,28.95,North,0,3.5,3.5,97,0.01,CLR,,0.17,WeatherDisplay:10.37,2013-10-05 18:40:00,
2013-10-05 13:45:00,62.8,61.9,28.95,NE,45,3.5,3.5,97,0.00,CLR,,0.17,WeatherDisplay:10.37,2013-10-05 18:45:00,
2013-10-05 13:50:00,62.8,61.9,28.94,NE,45,3.5,3.5,97,0.00,CLR,,0.17,WeatherDisplay:10.37,2013-10-05 18:50:00,
2013-10-05 13:55:00,63.0,62.4,28.94,North,0,4.6,4.6,98,0.00,CLR,,0.17,WeatherDisplay:10.37,2013-10-05 18:55:00,
2013-10-05 14:00:00,63.0,62.7,28.94,North,0,4.6,4.6,99,0.00,CLR,,0.17,WeatherDisplay:10.37,2013-10-05 19:00:00,
2013-10-05 14:05:00,63.0,62.7,28.94,NE,45,5.8,5.8,99,0.00,CLR,,0.17,WeatherDisplay:10.37,2013-10-05 19:05:00,
2013-10-05 14:10:00,63.1,62.9,28.94,NE,45,2.3,2.3,99,0.00,CLR,,0.17,WeatherDisplay:10.37,2013-10-05 19:10:00,
2013-10-05 14:15:00,63.1,62.9,28.94,NE,45,3.5,3.5,99,0.00,CLR,,0.17,WeatherDisplay:10.37,2013-10-05 19:15:00,
2013-10-05 14:20:00,63.0,62.7,28.93,NE,45,4.6,4.6,99,0.00,CLR,,0.17,WeatherDisplay:10.37,2013-10-05 19:20:00,
2013-10-05 14:25:00,63.0,62.7,28.93,NE,45,3.5,3.5,99,0.00,CLR,,0.17,WeatherDisplay:10.37,2013-10-05 19:25:00,
2013-10-05 14:30:00,62.8,62.5,28.92,NE,45,8.1,8.1,99,0.00,CLR,,0.17,WeatherDisplay:10.37,2013-10-05 19:30:00,
2013-10-05 14:35:00,62.8,62.5,28.92,North,0,6.9,6.9,99,0.00,CLR,,0.17,WeatherDisplay:10.37,2013-10-05 19:35:00,
2013-10-05 14:40:00,62.8,62.5,28.91,NE,45,5.8,5.8,99,0.00,CLR,,0.17,WeatherDisplay:10.37,2013-10-05 19:40:00,
2013-10-05 14:45:00,62.8,62.5,28.91,NE,45,4.6,4.6,99,0.00,CLR,,0.17,WeatherDisplay:10.37,2013-10-05 19:45:00,
2013-10-05 14:50:00,63.0,62.7,28.91,NE,45,5.8,5.8,99,0.00,CLR,,0.17,WeatherDisplay:10.37,2013-10-05 19:50:00,
2013-10-05 14:55:00,62.8,62.5,28.90,NE,45,5.8,5.8,99,0.00,CLR,,0.17,WeatherDisplay:10.37,2013-10-05 19:55:00,
2013-10-05 15:00:00,62.8,62.5,28.91,NE,45,8.1,8.1,99,0.00,CLR,,0.17,WeatherDisplay:10.37,2013-10-05 20:00:00,
2013-10-05 15:05:00,62.8,62.5,28.91,NE,45,5.8,5.8,99,0.00,CLR,,0.17,WeatherDisplay:10.37,2013-10-05 20:05:00,
2013-10-05 15:10:00,62.8,62.5,28.91,NE,45,4.6,4.6,99,0.00,CLR,,0.17,WeatherDisplay:10.37,2013-10-05 20:10:00,
2013-10-05 15:15:00,63.0,62.7,28.91,NE,45,4.6,4.6,99,0.00,CLR,,0.17,WeatherDisplay:10.37,2013-10-05 20:15:00,
2013-10-05 15:20:00,62.6,62.3,28.92,NE,45,4.6,4.6,99,0.00,CLR,,0.17,WeatherDisplay:10.37,2013-10-05 20:20:00,
2013-10-05 15:25:00,62.6,62.3,28.91,East,90,8.1,8.1,99,0.00,CLR,,0.17,WeatherDisplay:10.37,2013-10-05 20:25:00,
2013-10-05 15:30:00,62.6,62.3,28.91,NE,45,5.8,5.8,99,0.00,CLR,,0.17,WeatherDisplay:10.37,2013-10-05 20:30:00,
2013-10-05 15:35:00,62.8,62.5,28.91,NE,45,5.8,5.8,99,0.00,CLR,,0.17,WeatherDisplay:10.37,2013-10-05 20:35:00,
2013-10-05 15:40:00,62.6,62.3,28.90,East,90,4.6,4.6,99,0.00,CLR,,0.17,WeatherDisplay:10.37,2013-10-05 20:40:00,
2013-10-05 15:45:00,62.6,62.3,28.90,NE,45,6.9,6.9,99,0.00,CLR,,0.17,WeatherDisplay:10.37,2013-10-05 20:45:00,
2013-10-05 15:50:00,62.6,62.3,28.89,NE,45,5.8,5.8,99,0.00,CLR,,0.17,WeatherDisplay:10.37,2013-10-05 20:50:00,
2013-10-05 15:55:00,62.6,62.3,28.90,NE,45,5.8,5.8,99,0.00,CLR,,0.17,WeatherDisplay:10.37,2013-10-05 20:55:00,
2013-10-05 16:00:00,62.6,62.3,28.90,NE,45,6.9,6.9,99,0.00,CLR,,0.17,WeatherDisplay:10.37,2013-10-05 21:00:00,
2013-10-05 16:05:00,62.8,62.5,28.90,East,90,5.8,5.8,99,0.00,CLR,,0.17,WeatherDisplay:10.37,2013-10-05 21:05:00,
2013-10-05 16:10:00,62.8,62.5,28.90,East,90,6.9,6.9,99,0.00,CLR,,0.17,WeatherDisplay:10.37,2013-10-05 21:10:00,
2013-10-05 16:15:00,62.8,62.5,28.89,NE,45,6.9,6.9,99,0.00,CLR,,0.17,WeatherDisplay:10.37,2013-10-05 21:15:00,
2013-10-05 16:20:00,62.8,62.5,28.89,East,90,6.9,6.9,99,0.00,CLR,,0.17,WeatherDisplay:10.37,2013-10-05 21:20:00,
2013-10-05 16:25:00,63.0,62.7,28.89,East,90,5.8,5.8,99,0.00,CLR,,0.17,WeatherDisplay:10.37,2013-10-05 21:25:00,
2013-10-05 16:30:00,63.0,62.7,28.89,East,90,6.9,6.9,99,0.00,CLR,,0.17,WeatherDisplay:10.37,2013-10-05 21:30:00,
2013-10-05 16:35:00,63.0,62.7,28.89,NE,45,4.6,4.6,99,0.00,CLR,,0.17,WeatherDisplay:10.37,2013-10-05 21:35:00,
2013-10-05 16:40:00,63.1,62.9,28.89,NE,45,6.9,6.9,99,0.00,CLR,,0.17,WeatherDisplay:10.37,2013-10-05 21:40:00,
2013-10-05 16:45:00,63.1,62.9,28.89,NE,45,5.8,5.8,99,0.00,CLR,,0.17,WeatherDisplay:10.37,2013-10-05 21:45:00,
2013-10-05 16:50:00,63.1,62.9,28.90,NE,45,5.8,5.8,99,0.00,CLR,,0.17,WeatherDisplay:10.37,2013-10-05 21:50:00,
2013-10-05 16:55:00,63.0,62.7,28.89,East,90,5.8,5.8,99,0.00,CLR,,0.17,WeatherDisplay:10.37,2013-10-05 21:55:00,
2013-10-05 17:00:00,63.0,62.7,28.89,NE,45,5.8,5.8,99,0.00,CLR,,0.17,WeatherDisplay:10.37,2013-10-05 22:00:00,
2013-10-05 17:05:00,62.8,62.5,28.89,NE,45,8.1,8.1,99,0.00,CLR,,0.17,WeatherDisplay:10.37,2013-10-05 22:05:00,
2013-10-05 17:10:00,62.8,62.5,28.90,East,90,4.6,4.6,99,0.00,CLR,,0.17,WeatherDisplay:10.37,2013-10-05 22:10:00,
2013-10-05 17:15:00,62.8,62.5,28.90,NE,45,6.9,6.9,99,0.00,CLR,,0.17,WeatherDisplay:10.37,2013-10-05 22:15:00,
2013-10-05 17:20:00,62.8,62.5,28.90,East,90,3.5,3.5,99,0.00,CLR,,0.17,WeatherDisplay:10.37,2013-10-05 22:20:00,
2013-10-05 17:25:00,62.8,62.5,28.90,East,90,4.6,4.6,99,0.00,CLR,,0.17,WeatherDisplay:10.37,2013-10-05 22:25:00,
2013-10-05 17:30:00,62.8,62.5,28.90,NE,45,4.6,4.6,99,0.00,CLR,,0.17,WeatherDisplay:10.37,2013-10-05 22:30:00,
2013-10-05 17:35:00,62.6,62.3,28.90,NE,45,3.5,3.5,99,0.00,CLR,,0.17,WeatherDisplay:10.37,2013-10-05 22:35:00,
2013-10-05 17:40:00,62.6,62.3,28.90,East,90,2.3,0.0,99,0.00,CLR,,0.17,WeatherDisplay:10.37,2013-10-05 22:40:00,
2013-10-05 17:46:00,62.6,62.3,28.90,East,90,3.5,3.5,99,0.00,CLR,,0.17,WeatherDisplay:10.37,2013-10-05 22:46:00,
2013-10-05 17:51:00,62.6,62.3,28.89,East,90,3.1,3.1,99,0.00,CLR,,0.17,WeatherDisplay:10.37,2013-10-05 22:51:00,
2013-10-05 17:56:00,62.6,62.3,28.89,NE,45,3.5,3.5,99,0.00,CLR,,0.17,WeatherDisplay:10.37,2013-10-05 22:56:00,
2013-10-05 18:01:00,62.6,62.3,28.88,East,90,3.8,3.8,99,0.00,CLR,,0.17,WeatherDisplay:10.37,2013-10-05 23:01:00,
2013-10-05 18:06:00,62.6,62.3,28.88,NE,45,4.6,4.6,99,0.00,CLR,,0.17,WeatherDisplay:10.37,2013-10-05 23:06:00,
2013-10-05 18:11:00,62.6,62.3,28.88,NE,45,4.6,4.6,99,0.00,CLR,,0.17,WeatherDisplay:10.37,2013-10-05 23:11:00,
2013-10-05 18:16:00,62.4,62.1,28.89,NE,45,3.5,3.5,99,0.00,CLR,,0.17,WeatherDisplay:10.37,2013-10-05 23:16:00,
2013-10-05 18:21:00,62.2,62.0,28.88,NE,45,4.6,4.6,99,0.00,CLR,,0.17,WeatherDisplay:10.37,2013-10-05 23:21:00,
2013-10-05 18:26:00,62.4,62.1,28.88,NE,45,3.5,3.5,99,0.00,CLR,,0.17,WeatherDisplay:10.37,2013-10-05 23:26:00,
2013-10-05 18:31:00,62.2,62.0,28.87,NE,45,6.0,6.0,99,0.00,CLR,,0.17,WeatherDisplay:10.37,2013-10-05 23:31:00,
2013-10-05 18:36:00,62.1,61.8,28.87,NE,45,8.1,8.1,99,0.00,CLR,,0.17,WeatherDisplay:10.37,2013-10-05 23:36:00,
2013-10-05 18:41:00,61.9,61.6,28.87,NE,45,6.9,6.9,99,0.00,CLR,,0.17,WeatherDisplay:10.37,2013-10-05 23:41:00,
2013-10-05 18:46:00,61.9,61.6,28.87,East,90,8.1,8.1,99,0.00,CLR,,0.17,WeatherDisplay:10.37,2013-10-05 23:46:00,
2013-10-05 18:51:00,61.9,61.6,28.87,ENE,68,6.9,6.9,99,0.00,CLR,,0.17,WeatherDisplay:10.37,2013-10-05 23:51:00,
2013-10-05 18:56:00,61.7,61.4,28.86,East,90,5.8,5.8,99,0.00,CLR,,0.17,WeatherDisplay:10.37,2013-10-05 23:56:00,
2013-10-05 19:01:00,61.7,61.4,28.87,East,90,5.8,5.8,99,0.00,CLR,,0.17,WeatherDisplay:10.37,2013-10-06 00:01:00,
2013-10-05 19:06:00,61.5,61.2,28.86,NE,45,6.9,6.9,99,0.00,CLR,,0.17,WeatherDisplay:10.37,2013-10-06 00:06:00,
2013-10-05 19:11:00,61.3,61.1,28.86,East,90,5.8,5.8,99,0.00,CLR,,0.17,WeatherDisplay:10.37,2013-10-06 00:11:00,
2013-10-05 19:16:00,61.3,61.1,28.86,NE,45,5.8,5.8,99,0.01,RA,,0.18,WeatherDisplay:10.37,2013-10-06 00:16:00,
2013-10-05 19:21:00,61.3,61.1,28.86,East,90,6.9,6.9,99,0.02,RA,,0.19,WeatherDisplay:10.37,2013-10-06 00:21:00,
2013-10-05 19:26:00,61.2,60.9,28.86,East,90,8.1,8.1,99,0.04,RA,,0.20,WeatherDisplay:10.37,2013-10-06 00:26:00,
2013-10-05 19:31:00,61.2,60.9,28.85,NE,45,6.9,6.9,99,0.05,RA,,0.21,WeatherDisplay:10.37,2013-10-06 00:31:00,
2013-10-05 19:36:00,61.2,60.9,28.85,East,90,5.8,5.8,99,0.06,RA,,0.22,WeatherDisplay:10.37,2013-10-06 00:36:00,
2013-10-05 19:41:00,61.2,60.9,28.84,NE,45,5.8,5.8,99,0.06,RA,,0.22,WeatherDisplay:10.37,2013-10-06 00:41:00,
2013-10-05 19:46:00,61.2,60.9,28.84,East,90,3.5,3.5,99,0.07,RA,,0.24,WeatherDisplay:10.37,2013-10-06 00:46:00,
2013-10-05 19:51:00,61.2,60.9,28.85,East,90,6.9,6.9,99,0.07,RA,,0.24,WeatherDisplay:10.37,2013-10-06 00:51:00,
2013-10-05 19:56:00,61.2,60.9,28.85,East,90,5.8,5.8,99,0.07,CLR,,0.24,WeatherDisplay:10.37,2013-10-06 00:56:00,
2013-10-05 20:01:00,61.2,60.9,28.84,East,90,4.6,4.6,99,0.07,CLR,,0.24,WeatherDisplay:10.37,2013-10-06 01:01:00,
2013-10-05 20:06:00,61.2,60.9,28.84,East,90,8.1,8.1,99,0.07,CLR,,0.24,WeatherDisplay:10.37,2013-10-06 01:06:00,
2013-10-05 20:11:00,61.2,60.9,28.84,East,90,10.4,10.4,99,0.07,CLR,,0.24,WeatherDisplay:10.37,2013-10-06 01:11:00,
2013-10-05 20:16:00,61.2,60.9,28.84,NE,45,5.8,5.8,99,0.06,CLR,,0.24,WeatherDisplay:10.37,2013-10-06 01:16:00,
2013-10-05 20:21:00,61.2,60.9,28.84,East,90,4.6,4.6,99,0.05,CLR,,0.24,WeatherDisplay:10.37,2013-10-06 01:21:00,
2013-10-05 20:26:00,61.2,60.9,28.83,East,90,4.6,4.6,99,0.04,CLR,,0.24,WeatherDisplay:10.37,2013-10-06 01:26:00,
2013-10-05 20:31:00,61.3,61.1,28.84,East,90,3.5,0.0,99,0.02,CLR,,0.24,WeatherDisplay:10.37,2013-10-06 01:31:00,
2013-10-05 20:36:00,61.3,61.1,28.84,East,90,5.8,5.8,99,0.01,CLR,,0.24,WeatherDisplay:10.37,2013-10-06 01:36:00,
2013-10-05 20:41:00,61.5,61.2,28.84,East,90,3.5,3.5,99,0.01,CLR,,0.24,WeatherDisplay:10.37,2013-10-06 01:41:00,
2013-10-05 20:46:00,61.5,61.2,28.84,East,90,3.5,3.5,99,0.00,CLR,,0.24,WeatherDisplay:10.37,2013-10-06 01:46:00,
2013-10-05 20:51:00,61.7,61.4,28.84,NE,45,3.5,3.5,99,0.00,CLR,,0.24,WeatherDisplay:10.37,2013-10-06 01:51:00,
2013-10-05 20:56:00,61.9,61.6,28.84,East,90,3.5,3.5,99,0.01,RA,,0.25,WeatherDisplay:10.37,2013-10-06 01:56:00,
2013-10-05 21:01:00,61.9,61.6,28.83,NE,45,3.5,3.5,99,0.01,RA,,0.25,WeatherDisplay:10.37,2013-10-06 02:01:00,
2013-10-05 21:06:00,61.9,61.6,28.83,East,90,5.8,5.8,99,0.01,,,0.25,WeatherDisplay:10.37,2013-10-06 02:06:00,
2013-10-05 21:11:00,61.9,61.6,28.82,East,90,5.8,5.8,99,0.01,CLR,,0.25,WeatherDisplay:10.37,2013-10-06 02:11:00,
2013-10-05 21:16:00,62.1,61.8,28.82,East,90,5.8,5.8,99,0.01,CLR,,0.25,WeatherDisplay:10.37,2013-10-06 02:16:00,
2013-10-05 21:21:00,62.1,61.8,28.83,East,90,4.6,4.6,99,0.01,CLR,,0.25,WeatherDisplay:10.37,2013-10-06 02:21:00,
2013-10-05 21:26:00,62.2,62.0,28.82,NE,45,5.8,5.8,99,0.01,CLR,,0.25,WeatherDisplay:10.37,2013-10-06 02:26:00,
2013-10-05 21:31:00,62.2,62.0,28.82,NE,45,3.5,3.5,99,0.01,CLR,,0.25,WeatherDisplay:10.37,2013-10-06 02:31:00,
2013-10-05 21:36:00,62.4,62.1,28.82,East,90,4.6,4.6,99,0.01,CLR,,0.25,WeatherDisplay:10.37,2013-10-06 02:36:00,
2013-10-05 21:41:00,62.6,62.3,28.82,East,90,5.8,5.8,99,0.01,CLR,,0.25,WeatherDisplay:10.37,2013-10-06 02:41:00,
2013-10-05 21:46:00,62.8,62.5,28.82,NE,45,3.5,3.5,99,0.01,CLR,,0.25,WeatherDisplay:10.37,2013-10-06 02:46:00,
2013-10-05 21:51:00,62.8,62.5,28.81,East,90,3.5,3.5,99,0.01,CLR,,0.25,WeatherDisplay:10.37,2013-10-06 02:51:00,
2013-10-05 21:56:00,63.0,62.7,28.80,East,90,4.6,4.6,99,0.00,CLR,,0.25,WeatherDisplay:10.37,2013-10-06 02:56:00,
2013-10-05 22:01:00,63.1,62.9,28.80,East,90,2.3,2.3,99,0.00,CLR,,0.25,WeatherDisplay:10.37,2013-10-06 03:01:00,
2013-10-05 22:07:00,63.1,62.9,28.80,East,90,4.6,4.6,99,0.00,CLR,,0.25,WeatherDisplay:10.37,2013-10-06 03:07:00,
2013-10-05 22:12:00,63.3,63.0,28.79,North,0,3.5,3.5,99,0.00,CLR,,0.25,WeatherDisplay:10.37,2013-10-06 03:12:00,
2013-10-05 22:17:00,63.5,63.2,28.79,SE,135,4.6,4.6,99,0.00,CLR,,0.25,WeatherDisplay:10.37,2013-10-06 03:17:00,
2013-10-05 22:22:00,63.5,63.2,28.79,South,180,2.3,2.3,99,0.00,CLR,,0.25,WeatherDisplay:10.37,2013-10-06 03:22:00,
2013-10-05 22:27:00,63.5,63.2,28.79,South,180,3.5,3.5,99,0.05,RA,,0.30,WeatherDisplay:10.37,2013-10-06 03:27:00,
2013-10-05 22:32:00,63.7,63.4,28.80,South,180,4.6,4.6,99,0.08,RA,,0.33,WeatherDisplay:10.37,2013-10-06 03:32:00,
2013-10-05 22:37:00,63.7,63.4,28.80,South,180,4.6,4.6,99,0.08,RA,,0.33,WeatherDisplay:10.37,2013-10-06 03:37:00,
2013-10-05 22:42:00,64.0,63.8,28.79,South,180,5.8,5.8,99,0.15,RA,,0.41,WeatherDisplay:10.37,2013-10-06 03:42:00,
2013-10-05 22:47:00,64.2,63.9,28.79,SE,135,8.1,8.1,99,0.17,RA,,0.41,WeatherDisplay:10.37,2013-10-06 03:47:00,
2013-10-05 22:52:00,63.9,63.6,28.81,SW,225,10.4,10.4,99,0.18,RA,,0.43,WeatherDisplay:10.37,2013-10-06 03:52:00,
2013-10-05 22:57:00,62.4,62.1,28.80,South,180,10.4,10.4,99,0.19,RA,,0.44,WeatherDisplay:10.37,2013-10-06 03:57:00,
2013-10-05 23:01:00,62.1,61.8,28.80,SW,225,5.8,5.8,99,0.19,RA,,0.44,WeatherDisplay:10.37,2013-10-06 04:01:00,
2013-10-05 23:02:00,62.1,61.8,28.80,SW,225,4.6,4.6,99,0.19,RA,,0.44,WeatherDisplay:10.37,2013-10-06 04:02:00,
2013-10-05 23:07:00,61.9,61.6,28.80,SW,225,5.8,5.8,99,0.19,CLR,,0.44,WeatherDisplay:10.37,2013-10-06 04:07:00,
2013-10-05 23:12:00,61.7,61.4,28.80,SW,225,5.8,5.8,99,0.19,CLR,,0.44,WeatherDisplay:10.37,2013-10-06 04:12:00,
2013-10-05 23:17:00,61.7,61.4,28.80,SW,225,6.9,6.9,99,0.19,CLR,,0.44,WeatherDisplay:10.37,2013-10-06 04:17:00,
2013-10-05 23:22:00,61.7,61.4,28.80,West,270,8.1,8.1,99,0.19,CLR,,0.44,WeatherDisplay:10.37,2013-10-06 04:22:00,
2013-10-05 23:27:00,61.7,61.4,28.80,South,180,3.5,3.5,99,0.14,CLR,,0.44,WeatherDisplay:10.37,2013-10-06 04:27:00,
2013-10-05 23:32:00,61.5,61.2,28.80,NNE,22,5.8,5.8,99,0.11,CLR,,0.44,WeatherDisplay:10.37,2013-10-06 04:32:00,
2013-10-05 23:37:00,61.5,61.2,28.81,NNE,22,5.8,5.8,99,0.11,CLR,,0.44,WeatherDisplay:10.37,2013-10-06 04:37:00,
2013-10-05 23:42:00,60.8,60.5,28.80,SW,225,8.1,8.1,99,0.02,CLR,,0.44,WeatherDisplay:10.37,2013-10-06 04:42:00,
2013-10-05 23:47:00,60.3,60.0,28.81,NW,315,2.3,0.0,99,0.02,CLR,,0.44,WeatherDisplay:10.37,2013-10-06 04:47:00,
2013-10-05 23:52:00,59.9,59.6,28.81,NW,315,4.6,4.6,99,0.01,CLR,,0.44,WeatherDisplay:10.37,2013-10-06 04:52:00,
2013-10-05 23:57:00,59.5,59.3,28.81,NW,315,4.6,4.6,99,0.00,CLR,,0.44,WeatherDisplay:10.37,2013-10-06 04:57:00,